Theta_e
313 311 311 311 312 312 311 312 311 308 305 311 312 313 313 312 312 310 309 308 306 306 306 306 306 305 303 301 299 303 308 306 305 305 304 303 304 304
314 313 312 311 311 312 312 311 312 311 307 312 312 312 312 312 312 311 310 308 307 306 306 306 306 306 304 302 300 297 300 299 302 303 301 301 302 303
313 312 312 311 310 311 311 311 311 311 310 312 312 312 312 312 312 311 310 309 308 307 307 306 306 306 304 302 301 299 298 298 300 302 300 300 301 301
315 313 313 311 311 310 310 311 310 310 310 311 311 312 312 312 312 312 311 310 309 308 308 307 307 306 305 303 302 300 299 298 298 298 297 299 300 300
315 314 314 312 311 311 310 310 310 310 310 310 311 311 311 312 311 311 311 311 310 309 309 308 308 307 305 304 302 300 299 298 296 297 297 297 299 299
315 314 315 313 312 311 310 310 310 310 310 309 309 310 310 310 310 310 310 310 310 309 309 309 308 307 306 304 303 302 299 299 295 297 297 296 298 297
315 314 314 314 313 314 311 310 310 310 309 308 309 309 308 308 309 310 308 309 310 310 309 309 308 307 306 305 304 303 299 299 296 298 297 295 297 296
314 314 314 314 312 312 312 311 311 310 309 309 309 309 309 309 309 309 308 306 305 309 309 308 309 308 307 306 305 304 299 299 296 298 297 295 296 295
314 313 313 313 313 312 312 312 311 311 311 310 309 309 309 310 310 307 308 308 308 309 308 306 307 307 307 307 306 302 299 296 298 297 296 295 295 294
314 314 313 313 313 312 312 312 312 313 313 312 311 310 310 310 310 310 309 308 307 308 308 304 306 306 307 307 305 300 298 296 297 297 295 295 294 292
312 313 313 313 313 313 311 310 310 311 312 312 313 313 312 311 310 310 307 305 302 305 305 305 304 302 302 301 300 298 296 296 297 296 296 295 293 293
310 311 312 312 313 313 311 311 310 310 310 311 312 313 313 312 312 310 309 306 304 299 304 303 302 301 296 299 299 296 295 296 295 296 295 294 291 292
310 310 311 311 312 312 312 311 311 311 311 311 310 311 311 312 312 311 310 308 307 304 308 306 302 299 297 291 293 294 294 295 295 295 294 291 290 291
308 309 309 309 310 312 312 312 312 312 311 311 309 309 310 310 310 310 310 308 308 308 307 306 304 301 298 289 290 293 295 294 294 294 291 289 290 290
305 305 305 306 306 307 309 312 312 312 311 311 311 309 309 309 310 310 309 308 306 306 307 306 305 304 301 297 292 290 290 292 292 291 289 289 289 290
303 304 304 305 306 307 307 309 311 312 311 311 311 311 310 309 308 308 306 307 304 303 304 303 304 304 298 296 295 290 291 291 292 290 290 289 289 289
303 304 304 304 305 306 307 308 309 310 310 311 310 310 310 308 306 307 306 302 302 302 298 299 299 298 297 298 291 292 291 290 290 290 289 288 288 289
302 303 304 304 305 305 306 307 308 308 308 309 309 310 309 306 305 304 303 302 300 301 296 294 294 291 292 292 293 293 290 290 290 289 289 288 288 288
303 303 303 304 304 305 305 306 306 307 307 307 308 308 309 306 305 303 301 302 300 301 299 293 292 294 294 295 293 293 292 290 290 289 288 288 288 288
301 301 302 303 303 304 304 305 305 306 306 306 306 307 308 306 305 304 301 301 300 299 297 293 293 295 297 297 292 292 291 290 289 288 286 287 288 287
300 300 302 302 303 303 304 304 304 304 305 305 305 305 306 305 305 304 302 301 300 299 296 293 294 296 296 295 290 287 289 289 290 289 287 287 286 286
290 294 301 302 302 303 303 303 303 303 303 304 304 304 305 304 304 304 302 300 299 298 296 294 292 293 291 292 291 286 287 287 288 288 288 288 287 285
287 288 290 293 301 302 302 302 303 303 303 303 303 304 304 304 303 303 302 300 299 298 295 291 291 291 291 291 290 288 287 286 286 287 287 287 287 287
Wind_Speed
37 36 36 36 33 33 32 28 16 3 3 7 16 20 30 31 30 28 28 26 23 20 19 19 18 17 15 15 13 13 13 12 11 10 10 10 9 10
39 39 40 39 38 36 35 35 33 22 5 8 7 14 18 30 31 30 30 27 26 23 23 21 20 19 18 17 16 15 16 14 14 12 11 10 10 10
38 39 41 39 40 40 38 37 37 35 19 21 23 19 18 19 29 31 31 31 29 28 26 25 23 22 21 21 19 18 18 16 14 14 12 12 10 11
39 39 42 39 39 39 38 39 39 38 30 27 25 28 29 27 24 30 34 34 33 31 29 27 26 25 25 24 22 19 19 18 16 16 15 13 11 11
41 40 41 38 38 38 39 38 39 37 37 31 29 24 29 31 29 30 35 37 37 35 32 30 29 29 28 27 25 22 22 21 20 19 17 15 12 11
40 41 41 40 39 39 38 39 37 34 34 31 30 28 25 30 31 33 35 39 42 40 37 36 33 32 31 30 28 27 26 24 23 22 19 17 14 12
39 40 40 42 42 43 36 36 37 33 29 26 26 25 24 23 27 33 34 36 41 42 41 40 39 36 35 33 32 31 28 27 25 24 21 17 15 14
37 38 39 39 40 41 44 42 40 37 32 29 29 27 31 32 31 37 33 24 10 38 42 45 43 41 41 37 35 31 29 28 27 26 21 18 15 14
37 37 35 36 38 38 40 43 46 47 46 38 35 34 31 36 42 33 37 31 32 24 24 30 42 44 46 39 36 34 31 29 29 26 22 19 17 14
35 38 38 36 36 37 38 41 42 44 46 46 45 41 40 38 38 41 39 36 36 35 35 18 26 38 41 38 35 34 33 32 30 27 23 21 18 14
27 31 36 38 38 38 39 38 37 39 40 43 49 49 46 43 38 36 28 25 14 25 35 30 24 24 28 30 34 34 33 33 30 26 25 21 18 14
25 25 27 32 36 38 40 36 34 34 32 36 40 46 49 48 44 43 35 30 20 7 26 29 24 19 6 22 31 34 34 31 29 29 25 21 18 17
22 24 25 26 29 33 39 39 38 36 34 37 38 36 37 39 41 43 47 42 31 28 24 38 28 26 13 6 19 31 33 31 29 27 25 21 18 17
24 24 27 28 29 31 35 41 43 43 36 31 28 29 30 33 35 41 47 47 48 45 34 35 20 37 28 11 9 22 32 32 31 29 24 20 19 17
27 29 31 29 31 31 30 31 37 36 32 30 29 29 30 33 35 37 40 43 41 44 39 39 40 35 38 22 14 16 20 34 35 31 25 22 22 19
30 29 31 33 32 31 30 30 31 31 30 31 31 31 30 29 33 34 32 38 34 33 36 36 41 42 37 34 27 22 24 18 38 35 27 22 21 19
38 34 27 23 25 24 27 28 28 29 28 30 30 28 28 30 30 33 32 26 26 24 27 33 36 40 35 35 23 24 31 22 20 32 28 24 22 19
35 27 24 21 21 21 21 24 26 26 28 28 27 27 25 27 26 26 30 26 24 25 23 29 32 22 19 22 27 26 27 29 26 25 25 22 22 20
27 23 21 20 22 22 23 23 23 25 27 28 26 26 25 25 25 25 26 26 24 24 24 28 29 22 11 13 12 32 29 31 29 27 28 25 18 16
25 25 24 23 23 23 23 23 25 26 26 27 25 25 24 24 22 23 25 25 23 23 20 25 28 33 20 17 9 21 37 30 31 27 25 25 21 15
27 26 25 24 24 25 26 27 25 24 25 25 24 24 24 24 25 25 25 28 26 23 19 24 36 39 29 20 8 9 27 33 33 32 27 25 14 13
31 31 30 27 26 26 27 27 26 24 24 24 25 24 24 25 26 25 25 23 26 25 25 25 25 27 27 24 13 11 17 25 22 22 24 26 13 6
32 32 33 34 30 26 28 27 25 25 24 24 25 25 24 24 24 25 25 27 26 24 22 19 25 26 27 27 19 16 19 25 25 24 23 22 19 14
Wind_Direction
255 255 255 256 254 251 246 243 222 234 278 258 229 235 229 227 229 229 231 233 237 243 246 247 246 249 249 254 260 251 247 253 262 266 270 290 297 307
257 255 254 254 255 253 250 245 241 233 236 239 256 239 233 227 228 231 233 234 237 242 247 248 248 250 250 252 260 253 250 255 260 258 265 279 289 299
257 256 257 256 254 253 251 249 246 237 240 257 251 251 243 236 230 232 232 235 238 241 245 247 248 251 250 252 255 256 248 255 256 252 261 274 284 291
258 256 258 256 254 253 252 250 246 243 232 252 256 247 247 243 239 235 233 235 238 240 244 244 248 251 250 251 251 253 250 253 253 253 258 268 277 286
260 257 260 254 249 249 249 245 246 243 241 240 253 260 250 245 241 239 237 238 240 242 245 247 247 250 250 250 249 251 251 254 257 255 257 266 270 282
261 259 260 256 252 251 246 246 244 239 236 232 244 249 244 239 242 243 240 239 240 241 242 246 248 248 247 248 248 251 251 251 258 252 255 265 262 273
264 261 260 261 260 261 245 243 242 232 229 229 236 240 233 225 228 238 238 244 244 243 244 244 244 243 243 242 247 249 248 248 252 246 252 260 254 267
262 265 264 264 260 259 259 250 249 233 228 224 232 230 234 232 235 233 233 225 250 247 240 243 241 241 244 241 247 251 242 248 244 241 247 250 248 261
263 263 260 261 263 260 261 256 251 244 242 237 233 232 233 232 241 227 226 230 233 235 225 236 239 239 245 242 244 242 239 244 235 239 244 240 245 261
264 262 262 260 259 259 259 257 252 248 242 241 242 246 245 243 240 241 241 236 239 238 234 218 237 237 242 241 239 232 240 235 232 237 237 235 246 258
288 276 267 262 264 260 252 247 249 249 251 249 250 248 247 246 245 237 220 212 230 235 226 225 231 229 233 232 229 232 228 228 230 232 223 233 248 245
309 296 284 273 271 265 253 246 248 251 249 249 248 250 250 245 243 237 230 218 223 209 220 207 217 202 213 233 228 225 223 224 227 218 222 234 240 239
302 297 297 293 282 272 264 250 248 255 251 249 247 244 244 239 233 232 233 228 227 235 240 213 213 202 211 169 212 214 217 211 209 215 225 232 231 227
303 303 302 303 299 286 275 266 264 259 252 250 243 238 234 232 231 228 233 231 234 238 240 229 212 200 203 183 187 204 207 211 216 218 223 225 220 227
303 303 305 304 301 297 289 281 271 257 250 248 246 243 239 237 237 234 233 236 235 237 239 234 225 222 213 203 193 187 187 214 214 216 219 220 222 227
302 301 302 300 298 294 291 284 273 258 246 245 248 249 244 233 225 223 219 225 226 235 234 232 228 221 212 212 203 185 195 185 209 215 219 223 221 231
301 300 300 295 289 286 287 287 281 268 249 247 248 249 243 226 218 214 215 211 217 222 214 215 218 221 222 216 198 204 197 196 196 202 207 214 222 231
294 292 290 286 280 279 275 276 279 272 259 251 247 245 240 221 217 209 209 211 213 218 204 201 203 202 213 223 221 206 200 203 200 196 201 214 233 226
288 286 282 279 281 279 276 272 267 273 278 262 253 248 242 227 216 212 209 212 215 216 207 190 189 194 198 219 215 223 209 211 206 202 211 210 219 225
285 286 282 279 280 277 277 277 277 276 273 267 257 250 241 225 220 218 211 215 215 212 202 189 195 201 209 213 198 213 213 207 199 196 199 213 227 238
291 283 279 277 276 277 280 285 283 277 273 266 261 254 247 229 230 222 216 213 211 209 203 201 207 216 212 202 184 172 195 211 216 201 195 194 201 224
333 333 308 289 285 277 282 283 283 280 273 267 265 261 255 242 234 226 215 208 210 210 211 209 202 192 191 198 198 160 170 191 204 206 208 202 173 193
338 331 331 328 316 292 285 279 275 275 275 275 271 267 256 240 238 233 220 211 210 207 198 181 181 188 196 200 187 172 166 173 178 190 202 209 222 223